Location: North Evanston
(42.0634°N, 87.6976°W)
Time: 17:27:41
(UTC+00:00)

Vanguard 2 - Pass Details

Date: 10 May 2026
Orbit: 553 x 2894 km, 32.9° (Epoch: 9 June)

Event Time Altitude Azimuth Distance (km) Brightness Sun altitude
Rises 11:35:47 0° 259° (W) 6,602 11.6 9.7°
Reaches altitude 10° 11:40:36 10° 256° (WSW) 5,407 11.2 10.6°
Maximum altitude 11:55:15 55° 185° (S) 2,316 10.0 13.2°
Drops below altitude 10° 12:04:34 10° 111° (ESE) 3,548 12.1 14.9°
Sets 12:07:04 0° 106° (ESE) 4,260 12.5 15.4°
